CDT,Max TemperatureF,Mean TemperatureF,Min TemperatureF,Max Dew PointF,MeanDew PointF,Min DewpointF,Max Humidity, Mean Humidity, Min Humidity, Max Sea Level PressureIn, Mean Sea Level PressureIn, Min Sea Level PressureIn, Max VisibilityMiles, Mean VisibilityMiles, Min VisibilityMiles, Max Wind SpeedMPH, Mean Wind SpeedMPH, Max Gust SpeedMPH,PrecipitationIn, CloudCover, Events, WindDirDegrees
2013-3-1,30,25,19,25,21,14,100,79,58,30.30,30.18,30.10,10,7,2,18,11,23,0.01,8,Snow,7
2013-3-2,23,15,6,16,10,5,92,82,71,30.32,30.28,30.19,10,10,7,15,8,16,0.00,0,,306
2013-3-3,30,18,6,17,13,5,100,77,53,30.22,30.11,29.99,10,8,2,15,5,17,0.00,3,Fog,118
2013-3-4,32,28,23,27,23,17,96,80,63,30.05,29.94,29.87,10,6,1,23,16,31,0.02,7,Snow,104
2013-3-5,30,28,25,27,25,21,100,89,78,30.21,29.98,29.89,10,4,0,24,13,29,0.21,8,Fog-Snow,332
2013-3-6,26,17,8,21,17,10,100,88,75,30.39,30.33,30.21,10,9,2,20,10,24,0.00,5,,323
2013-3-7,27,14,1,21,11,0,100,88,75,30.43,30.37,30.32,8,4,0,13,6,15,0.00,2,Fog,45
2013-3-8,39,28,17,32,26,16,100,85,70,30.39,30.31,30.18,10,7,4,16,11,22,T,1,,123
2013-3-9,42,38,34,41,37,32,100,95,89,30.13,29.86,29.69,8,3,1,20,12,28,1.27,8,Rain,139
2013-3-10,42,38,34,41,37,34,100,100,100,29.73,29.66,29.58,10,3,0,23,7,28,0.61,8,Fog-Rain,358
2013-3-11,34,30,26,34,29,21,100,89,78,29.91,29.71,29.61,10,7,2,28,15,32,T,8,,320
2013-3-12,34,28,21,29,23,17,92,81,69,30.18,30.02,29.92,10,8,2,31,18,39,0.01,6,Snow,288
2013-3-13,32,25,18,20,16,14,92,73,53,30.42,30.34,30.18,10,10,10,20,12,26,0.00,0,,310
2013-3-14,48,36,23,33,26,20,96,75,53,30.35,30.18,30.08,10,10,6,20,6,24,T,2,,135
2013-3-15,45,37,28,37,33,28,100,88,76,30.04,29.87,29.74,8,6,4,17,7,22,0.00,2,,81
2013-3-16,34,30,26,34,29,20,100,86,72,30.19,29.93,29.76,10,6,0,23,12,30,0.00,7,Fog,336
2013-3-17,36,30,23,27,22,16,85,73,61,30.20,30.08,29.91,10,10,9,23,14,28,0.00,3,,83
2013-3-18,33,25,16,31,24,9,100,84,67,29.94,29.79,29.69,10,5,0,36,17,43,0.13,7,Fog-Snow,189
2013-3-19,31,22,13,20,13,7,81,70,58,30.21,30.11,29.93,10,10,10,26,18,32,0.00,2,,296
2013-3-20,24,18,11,10,7,4,76,65,54,30.27,30.21,30.12,10,10,10,30,20,36,0.00,1,,311
2013-3-21,31,19,7,16,10,3,88,67,46,30.15,30.10,30.04,10,10,10,10,5,12,0.00,0,,356
2013-3-22,39,28,16,24,18,13,88,68,47,30.10,30.07,30.03,10,10,10,8,4,12,0.03,2,,7
2013-3-23,41,33,24,30,24,18,100,72,44,30.13,30.07,30.02,10,7,1,13,6,16,0.03,5,Snow,65
2013-3-24,31,30,28,30,28,25,100,93,85,30.03,29.91,29.82,6,2,0,21,13,26,0.02,8,Fog-Snow,15
2013-3-25,35,31,27,27,25,21,100,82,64,30.21,30.02,29.88,10,8,2,24,14,31,T,7,Snow,335
2013-3-26,39,31,23,30,26,21,92,81,70,30.32,30.28,30.21,10,10,10,16,9,22,0.00,5,,305
2013-3-27,44,35,25,28,25,20,92,70,48,30.37,30.33,30.30,10,10,9,10,3,12,0.00,2,,312
2013-3-28,51,39,26,33,28,22,85,66,46,30.37,30.32,30.26,10,10,10,10,4,13,0.00,2,,96
2013-3-29,57,43,28,36,31,26,92,65,38,30.31,30.25,30.18,10,10,7,10,6,14,0.00,0,,101
2013-3-30,52,45,37,46,40,31,100,85,70,30.17,29.97,29.86,10,6,0,22,10,30,0.03,5,Fog-Rain,196
2013-3-31,51,41,30,40,33,24,100,75,50,30.04,29.88,29.84,10,5,0,30,14,36,0.00,5,Fog,296